Location: Tamazert
(32.6352°N, 5.2072°W)
Time: 15:45:11
(UTC+00:00)

Vanguard 3 - Pass Details

Date: 06 October 2022
Orbit: 509 x 3255 km, 33.3° (Epoch: 08 December)

Event Time Altitude Azimuth Distance (km) Brightness Sun altitude
Rises 07:50:08 0° 249° (WSW) 2,603 9.3 18.0°
Reaches altitude 10° 07:52:11 10° 247° (WSW) 1,719 8.5 18.5°
Maximum altitude 07:55:50 67° 164° (SSE) 607 7.1 19.2°
Drops below altitude 10° 08:00:31 10° 82° (E) 2,195 10.6 20.1°
Sets 08:03:28 0° 80° (E) 3,426 11.3 20.7°
